Temp
24 24 23 23 22 21 21 21 21 21 21 23 23 23 22 21 21 21 21 22 23 22 21 20 20 20 20 20 20 18 18 18 17 15 14 13 13 13 12 12 13 13 13
24 23 23 23 22 22 21 21 21 21 21 21 22 23 23 22 21 21 21 21 21 21 21 20 20 20 19 19 19 18 18 17 16 15 14 13 13 14 13 12 12 12 12
22 22 21 21 20 21 21 22 22 20 20 20 20 20 21 21 21 22 22 22 20 20 20 20 21 20 20 19 19 18 17 16 16 16 15 15 13 13 12 12 12 12 12
21 21 21 21 20 20 20 20 20 20 20 20 20 20 20 20 20 21 20 20 20 20 20 20 21 20 20 19 18 18 18 17 16 17 17 15 14 13 14 14 13 12 12
19 19 19 19 19 19 20 21 20 20 20 20 20 20 20 21 21 21 21 20 20 20 20 20 21 20 20 20 19 18 16 16 18 17 17 16 16 14 14 15 15 13 13
18 18 17 18 20 20 20 21 22 23 23 23 23 21 20 21 22 21 21 20 20 20 20 20 20 20 20 20 20 19 17 16 17 18 18 17 16 15 15 15 15 14 13
17 18 20 19 20 21 21 21 22 22 23 23 23 23 23 23 23 24 24 23 21 19 19 20 20 20 20 20 20 20 19 19 16 16 17 17 15 15 15 14 14 14 14
17 17 19 20 18 19 19 18 20 20 22 22 22 22 23 23 23 23 23 24 24 19 19 19 20 19 19 20 20 20 20 18 17 16 15 15 14 14 14 14 13 13 13
17 16 17 19 20 20 20 20 20 20 20 20 20 20 22 23 23 23 24 24 23 21 19 19 19 19 19 20 18 19 19 15 16 16 15 15 14 15 15 14 13 14 15
16 18 19 19 19 20 20 20 20 20 19 17 18 19 21 21 22 23 23 23 22 20 19 20 19 19 19 18 18 19 16 16 15 16 15 14 15 15 15 14 14 15 15
15 14 15 15 17 18 18 18 17 17 18 19 20 20 20 20 21 21 21 20 20 18 18 17 19 19 19 19 17 18 17 16 15 14 13 13 15 14 15 14 14 15 14
13 13 14 15 15 16 17 17 17 16 16 16 16 16 16 17 18 18 18 18 17 17 18 18 18 18 18 18 17 17 16 16 15 14 15 15 14 14 13 13 14 14 14
13 13 13 13 14 14 14 14 13 14 14 15 16 17 18 19 19 19 18 18 17 17 17 17 17 17 16 16 16 16 16 15 15 16 16 16 16 15 15 14 13 13 14
12 11 11 11 12 12 12 13 14 14 15 16 16 17 18 18 19 19 18 17 16 15 15 15 16 15 16 16 15 15 15 15 16 17 17 17 16 16 15 15 14 14 14
11 11 11 12 13 13 14 14 14 14 15 15 15 16 17 18 18 17 17 15 15 15 15 14 15 15 15 15 15 15 14 14 15 17 17 17 17 16 16 15 15 15 15
11 11 12 11 11 12 12 13 14 14 14 14 13 13 14 14 14 15 15 15 15 15 15 14 14 14 14 15 15 15 15 15 15 16 17 17 17 17 16 16 15 15 16
10 10 11 11 10 10 10 11 11 12 13 14 14 14 14 14 14 13 13 14 14 14 14 13 13 14 14 15 14 15 15 14 15 16 17 17 17 17 16 16 16 16 16
9 9 9 9 10 10 9 10 10 10 11 12 13 15 15 14 14 13 13 13 14 14 14 12 13 14 15 14 14 14 14 14 15 15 16 17 16 17 17 16 16 17 16
8 8 8 9 10 9 9 9 10 11 11 12 12 13 13 15 14 13 14 14 13 13 15 14 13 14 14 15 14 14 14 14 14 15 15 16 16 17 17 16 16 16 16
8 9 8 8 9 9 10 10 10 11 11 10 11 12 13 12 12 13 13 14 14 13 14 14 15 15 14 13 15 15 14 14 15 15 15 15 16 16 16 16 17 16 16
8 9 9 9 8 8 9 9 9 10 9 9 9 10 11 11 12 12 13 14 14 14 14 15 15 15 15 15 14 14 15 15 15 15 15 15 16 16 16 16 17 16 16
8 8 9 8 8 8 8 8 9 9 9 9 9 9 10 10 11 12 13 14 14 15 14 13 13 12 13 14 14 13 14 15 15 15 15 15 15 16 16 15 16 15 16
8 8 8 8 8 9 9 9 9 9 9 9 9 10 10 10 11 12 12 13 13 13 12 12 11 11 12 13 13 13 14 14 15 15 15 14 15 15 16 15 14 14 14
8 8 8 8 8 8 9 9 9 8 8 9 9 9 9 9 10 11 11 12 11 12 11 11 11 11 11 12 12 13 13 14 15 15 14 14 14 14 15 15 14 14 14
7 7 7 7 8 7 8 8 7 7 7 8 8 8 9 9 10 10 10 10 11 10 10 11 11 11 11 12 12 13 13 13 13 14 14 14 14 14 14 14 14 14 13
6 6 6 6 7 6 6 7 7 6 6 6 7 8 8 9 9 10 10 9 10 10 10 10 10 11 11 11 12 12 13 13 13 13 13 13 13 13 13 13 13 13 12
Height
1534 1537 1539 1540 1542 1542 1543 1544 1544 1545 1544 1544 1544 1544 1544 1545 1545 1543 1542 1541 1540 1541 1541 1542 1541 1537 1537 1534 1534 1530 1530 1528 1526 1525 1525 1523 1523 1522 1521 1519 1516 1515 1513
1532 1533 1536 1537 1538 1540 1540 1541 1541 1541 1541 1540 1540 1540 1539 1539 1539 1538 1537 1537 1537 1537 1537 1538 1536 1535 1531 1531 1530 1527 1529 1527 1525 1523 1523 1524 1523 1520 1520 1520 1519 1516 1514
1528 1530 1532 1534 1533 1534 1535 1536 1536 1536 1536 1537 1537 1536 1535 1535 1534 1534 1532 1531 1531 1532 1532 1532 1532 1531 1528 1528 1526 1525 1523 1523 1524 1523 1523 1524 1522 1521 1520 1520 1519 1517 1514
1527 1529 1531 1533 1533 1533 1533 1535 1536 1535 1535 1535 1532 1532 1532 1532 1531 1530 1529 1528 1528 1527 1528 1528 1528 1527 1526 1525 1524 1521 1519 1520 1521 1523 1522 1523 1523 1521 1522 1521 1519 1518 1518
1526 1528 1528 1528 1530 1532 1531 1529 1529 1530 1532 1533 1532 1530 1529 1530 1530 1529 1526 1525 1524 1523 1523 1524 1524 1523 1523 1524 1521 1521 1521 1517 1520 1519 1521 1521 1522 1520 1520 1520 1518 1517 1518
1526 1524 1530 1537 1528 1529 1534 1533 1526 1526 1527 1528 1527 1527 1527 1527 1527 1524 1522 1521 1519 1519 1518 1519 1518 1516 1516 1517 1516 1516 1517 1516 1517 1518 1517 1519 1519 1519 1520 1519 1519 1517 1518
1537 1526 1526 1532 1533 1529 1531 1532 1527 1525 1525 1525 1525 1522 1521 1521 1520 1519 1517 1515 1513 1513 1512 1512 1512 1511 1508 1510 1511 1510 1511 1509 1511 1513 1513 1515 1514 1516 1517 1518 1517 1517 1517
1539 1536 1528 1523 1529 1527 1526 1528 1527 1526 1523 1522 1519 1517 1517 1516 1514 1513 1511 1509 1507 1506 1506 1504 1505 1504 1503 1505 1505 1506 1505 1505 1506 1509 1510 1510 1511 1513 1514 1516 1515 1516 1516
1539 1534 1527 1522 1525 1523 1519 1519 1520 1521 1520 1517 1514 1512 1511 1510 1509 1506 1504 1503 1500 1499 1499 1498 1498 1496 1497 1499 1501 1501 1501 1503 1501 1503 1506 1507 1508 1508 1512 1516 1515 1516 1516
1530 1524 1520 1520 1519 1517 1514 1512 1512 1514 1514 1511 1509 1506 1505 1502 1502 1500 1498 1496 1494 1492 1491 1493 1491 1490 1490 1492 1494 1496 1497 1499 1500 1498 1502 1504 1506 1508 1510 1512 1515 1515 1515
1522 1519 1517 1515 1513 1511 1507 1505 1505 1505 1505 1502 1500 1498 1496 1494 1492 1490 1489 1488 1486 1485 1482 1482 1482 1481 1484 1484 1488 1491 1493 1496 1497 1497 1499 1501 1503 1504 1507 1510 1513 1514 1514
1515 1513 1511 1509 1506 1503 1500 1499 1499 1499 1496 1493 1490 1488 1487 1485 1484 1483 1483 1482 1480 1476 1475 1475 1474 1474 1475 1477 1480 1485 1490 1492 1494 1496 1497 1499 1501 1503 1504 1507 1510 1512 1512
1508 1506 1503 1500 1498 1496 1494 1493 1492 1491 1489 1486 1484 1482 1480 1480 1479 1478 1477 1476 1474 1470 1468 1468 1468 1469 1469 1472 1476 1480 1481 1487 1490 1492 1492 1493 1496 1499 1501 1505 1508 1508 1509
1503 1501 1498 1495 1492 1490 1489 1487 1485 1483 1481 1479 1477 1475 1473 1473 1473 1473 1471 1468 1468 1464 1464 1464 1463 1463 1464 1465 1469 1473 1476 1478 1483 1486 1488 1489 1491 1496 1497 1501 1504 1507 1509
1498 1495 1492 1490 1487 1484 1482 1480 1477 1475 1475 1472 1470 1468 1467 1465 1466 1462 1463 1463 1463 1462 1462 1460 1460 1458 1458 1459 1461 1465 1468 1473 1477 1480 1483 1484 1487 1491 1494 1496 1500 1503 1505
1493 1490 1487 1483 1480 1477 1473 1469 1469 1466 1464 1463 1461 1460 1458 1457 1456 1454 1454 1454 1454 1455 1455 1453 1452 1453 1452 1452 1454 1455 1460 1463 1469 1475 1477 1479 1481 1484 1489 1492 1495 1498 1501
1487 1484 1481 1477 1473 1469 1467 1463 1458 1455 1452 1453 1451 1449 1448 1447 1447 1448 1447 1446 1447 1447 1446 1447 1446 1445 1444 1445 1446 1449 1451 1457 1460 1469 1471 1473 1476 1479 1483 1487 1490 1492 1496
1480 1477 1473 1469 1466 1462 1460 1457 1454 1450 1448 1444 1442 1441 1439 1438 1439 1439 1438 1438 1438 1437 1438 1438 1439 1439 1438 1438 1440 1442 1447 1450 1455 1460 1463 1467 1470 1473 1476 1480 1484 1488 1491
1470 1468 1465 1462 1460 1456 1454 1450 1448 1445 1442 1440 1437 1434 1433 1432 1430 1429 1429 1427 1429 1431 1431 1429 1428 1430 1431 1432 1434 1437 1437 1443 1447 1451 1455 1459 1463 1467 1469 1475 1479 1482 1485
1463 1460 1457 1454 1452 1450 1447 1444 1441 1439 1436 1434 1431 1430 1427 1426 1424 1423 1419 1418 1419 1420 1422 1422 1422 1422 1423 1423 1423 1426 1430 1434 1436 1442 1447 1451 1456 1460 1463 1468 1473 1475 1480
1457 1453 1450 1446 1444 1443 1441 1438 1435 1432 1429 1427 1423 1421 1421 1418 1416 1415 1412 1413 1413 1414 1412 1414 1414 1415 1416 1417 1418 1417 1419 1422 1428 1434 1440 1444 1449 1452 1456 1462 1467 1471 1474
1452 1448 1444 1441 1438 1435 1434 1431 1427 1424 1420 1417 1413 1411 1410 1410 1408 1407 1407 1406 1407 1407 1406 1406 1406 1407 1407 1409 1409 1410 1411 1414 1420 1427 1432 1437 1442 1446 1450 1454 1459 1464 1469
1448 1444 1440 1437 1434 1430 1427 1423 1420 1416 1413 1409 1406 1404 1402 1400 1398 1397 1398 1399 1397 1397 1396 1396 1396 1396 1396 1397 1398 1400 1403 1405 1410 1418 1424 1429 1435 1439 1444 1447 1453 1458 1462
1444 1440 1436 1433 1430 1426 1422 1418 1414 1411 1407 1403 1400 1396 1394 1392 1391 1390 1389 1390 1390 1390 1389 1388 1387 1386 1385 1387 1388 1390 1394 1397 1402 1409 1416 1421 1427 1433 1439 1444 1448 1452 1456
1441 1437 1433 1429 1426 1421 1416 1412 1408 1404 1399 1395 1392 1389 1387 1385 1384 1383 1383 1383 1382 1382 1380 1378 1377 1376 1376 1377 1378 1381 1384 1389 1394 1403 1410 1414 1421 1427 1433 1439 1444 1449 1451
1440 1435 1431 1427 1422 1418 1413 1408 1404 1399 1394 1389 1385 1381 1379 1378 1377 1377 1376 1376 1375 1374 1372 1371 1370 1369 1371 1370 1368 1373 1377 1383 1389 1394 1403 1410 1416 1422 1429 1434 1439 1445 1448
Wind_Speed
15 15 15 14 15 15 15 15 15 15 17 18 18 18 18 17 17 19 21 20 22 21 18 14 15 13 8 9 9 9 6 11 11 8 6 4 2 5 1 3 4 4 2
12 14 13 13 13 12 12 12 13 15 15 16 16 17 17 17 18 20 21 19 21 19 17 17 14 15 13 12 8 10 7 10 9 7 3 4 3 2 2 3 4 3 3
10 8 9 8 13 14 14 13 13 13 14 13 13 16 16 16 17 19 20 22 20 20 18 17 16 18 16 11 13 10 7 5 6 3 2 6 4 2 1 4 2 6 6
8 6 5 4 3 2 5 6 8 9 10 11 11 13 14 14 16 17 19 20 19 18 18 17 17 19 19 14 13 12 8 8 7 7 6 7 5 7 4 2 3 0 2
14 11 9 7 5 4 7 7 6 5 4 5 8 9 10 11 13 16 19 19 20 19 18 17 20 20 20 17 10 15 8 6 8 8 8 7 8 5 5 5 3 2 5
14 15 12 11 10 9 7 6 4 3 4 5 5 5 7 7 13 19 22 23 22 23 22 19 20 25 27 24 16 15 14 9 12 10 9 10 10 8 7 4 5 5 4
10 10 8 7 9 8 9 10 9 8 8 9 10 11 11 13 14 17 19 22 22 21 23 22 20 22 25 23 18 15 16 14 16 15 11 11 13 11 9 8 6 5 4
8 7 4 4 8 9 10 14 17 18 18 18 18 19 20 20 21 22 23 25 27 23 23 22 23 24 27 24 17 14 16 15 16 13 12 13 11 13 11 6 8 7 6
10 12 12 14 17 18 18 20 24 27 28 27 26 27 28 29 30 31 32 32 33 26 22 22 22 27 26 25 19 16 15 12 17 18 16 16 17 12 12 7 6 9 7
14 19 22 24 25 26 27 27 29 30 32 27 26 33 37 37 36 35 36 36 36 30 21 20 24 26 27 26 20 19 17 16 17 20 22 18 14 13 14 15 9 9 5
15 18 21 23 27 27 28 29 30 32 35 36 36 36 38 37 37 34 33 33 34 25 25 21 22 22 26 26 23 21 18 16 19 16 16 14 16 15 17 18 11 9 6
18 20 23 25 26 26 31 33 35 35 35 34 32 32 28 27 23 23 26 29 29 30 29 24 22 23 19 25 25 22 20 21 18 17 16 16 14 14 14 16 12 12 9
22 25 27 28 29 30 31 32 30 28 28 29 28 28 27 25 24 24 25 24 28 26 23 20 17 18 15 19 24 26 25 26 21 20 18 23 15 18 16 15 14 17 13
23 24 26 28 30 31 29 28 28 28 28 29 30 30 29 27 25 23 22 17 13 14 12 12 15 17 17 22 26 28 30 29 28 25 21 19 16 17 21 16 17 13 13
24 25 27 28 29 30 30 30 29 29 29 30 30 29 27 26 23 16 17 16 18 23 28 24 21 16 22 26 24 31 33 29 29 27 23 22 24 24 21 19 18 16 17
25 25 27 29 30 30 32 33 31 33 34 34 35 37 38 39 37 35 34 33 32 29 28 22 19 17 18 22 30 35 35 34 30 27 25 25 27 26 22 24 21 22 18
26 27 28 30 31 31 30 30 35 31 28 31 31 31 31 29 29 29 31 33 32 31 29 22 18 21 20 22 29 37 36 35 29 29 25 27 27 26 25 25 24 23 22
26 29 30 30 29 29 29 29 29 30 30 32 26 29 28 29 28 26 24 28 28 28 28 25 23 22 27 24 25 33 33 32 33 31 28 27 30 26 26 28 27 24 22
27 27 27 26 27 27 27 28 28 27 28 29 28 30 26 30 28 26 27 30 27 24 24 24 21 23 24 32 25 27 35 34 34 32 29 30 31 28 27 27 29 25 24
28 27 27 27 25 24 25 28 28 28 30 28 27 26 28 26 24 27 24 22 25 27 26 25 25 25 21 26 35 34 35 48 38 33 30 31 30 29 28 30 27 29 27
27 26 26 26 25 25 25 28 28 31 32 34 34 30 30 36 31 29 29 23 25 27 23 22 24 25 27 27 27 29 33 33 36 36 33 32 32 31 32 29 25 25 26
24 25 24 23 23 25 28 29 28 30 31 33 33 32 30 30 31 29 30 28 27 27 23 24 23 27 26 28 31 33 34 37 39 43 36 32 33 30 29 29 32 25 28
22 21 21 21 22 23 25 26 27 27 29 30 31 30 28 27 27 30 30 29 25 25 31 29 27 29 30 32 30 34 38 39 40 41 40 33 34 30 31 32 27 30 28
22 20 18 19 19 21 22 25 27 29 30 32 31 29 27 27 27 25 26 29 29 30 29 28 31 30 30 30 32 34 37 37 37 39 39 37 37 31 30 28 25 21 21
22 20 18 17 18 21 23 24 24 27 28 28 27 27 27 24 25 23 22 23 27 28 27 26 24 26 29 28 27 31 32 35 32 33 35 35 35 36 25 25 23 21 21
18 16 18 17 20 20 22 23 23 26 24 22 22 22 21 18 19 23 21 23 24 23 20 20 23 24 27 26 31 28 32 31 31 33 29 30 32 34 30 27 27 21 20
Wind_Direction
203 214 220 228 234 245 247 251 255 257 262 266 269 269 264 259 258 258 263 264 255 257 268 278 283 284 278 278 284 292 295 279 278 284 284 259 314 192 44 42 17 33 356
203 202 213 222 225 234 244 247 254 257 261 267 270 269 269 267 267 267 269 262 260 268 270 272 274 275 273 297 297 291 263 273 265 255 227 279 240 258 112 96 70 62 0
185 195 199 213 224 227 236 255 255 258 259 262 264 269 272 271 269 272 276 277 270 267 260 261 268 271 265 262 258 260 278 283 261 218 213 208 212 212 30 112 66 18 14
155 147 149 172 199 255 260 293 297 292 279 269 271 274 276 276 275 277 275 278 275 270 267 260 261 266 268 264 263 272 246 230 238 225 212 212 199 219 202 236 160 232 52
100 100 108 113 95 200 208 218 215 193 218 277 286 280 284 286 290 289 286 286 280 276 271 266 268 268 256 257 259 280 249 232 223 205 215 215 207 212 213 210 188 164 329
94 88 64 46 78 62 29 23 40 6 335 315 289 286 293 292 278 275 281 282 273 266 272 270 265 262 265 260 255 254 244 250 214 221 215 221 213 205 210 196 193 214 176
25 68 74 35 9 16 354 339 346 339 325 319 313 310 300 290 281 287 288 287 287 281 271 267 266 260 265 260 248 254 252 244 220 210 209 212 213 188 218 194 196 186 160
336 329 336 336 323 324 321 320 317 314 310 306 307 307 301 302 301 302 303 300 293 291 282 273 266 265 259 254 248 249 255 241 224 217 217 205 204 192 198 184 192 185 164
289 304 313 312 304 305 303 303 304 304 302 301 302 299 295 296 298 298 299 299 299 290 281 282 272 265 260 261 233 248 247 219 231 211 201 214 200 202 169 186 173 163 153
298 304 306 305 303 302 301 301 297 294 292 294 287 288 291 291 290 290 289 290 290 291 284 281 274 262 263 251 233 234 229 213 212 211 208 216 211 201 188 182 193 195 181
302 299 300 300 300 302 302 299 295 291 291 290 288 287 286 286 287 288 286 288 290 286 283 281 264 264 264 254 231 225 234 215 209 216 202 206 206 201 195 192 194 200 210
303 300 299 299 299 296 294 294 291 288 289 290 291 291 286 290 293 290 291 296 298 295 284 284 274 266 261 252 220 211 216 216 205 201 197 199 201 201 199 207 197 198 225
303 302 302 300 298 296 294 292 288 284 282 280 278 280 281 279 278 279 280 285 291 297 281 278 273 252 227 227 223 217 217 214 204 207 204 207 219 202 209 206 206 210 208
301 299 298 295 295 293 290 284 282 278 277 276 275 275 276 276 275 273 276 276 294 318 313 308 301 266 248 221 216 215 218 217 199 211 207 214 217 192 196 212 210 202 204
301 300 299 297 294 291 286 282 279 277 274 276 274 274 275 272 272 265 257 266 270 279 292 291 290 281 243 226 219 221 216 214 205 212 208 204 201 207 200 216 202 200 205
302 303 302 300 293 287 285 288 281 283 281 279 275 271 269 266 268 267 268 271 278 280 282 283 280 268 265 242 237 220 215 207 207 211 208 205 202 210 211 206 209 203 207
297 299 299 299 294 287 289 289 288 283 286 289 281 278 275 273 265 268 267 266 269 272 268 268 265 255 260 246 237 223 214 209 199 211 208 207 202 202 206 204 205 207 210
297 296 296 298 294 288 286 287 284 284 290 286 288 289 285 275 261 260 269 269 268 266 266 261 255 255 247 247 230 216 211 212 206 208 204 209 202 203 206 207 207 208 206
301 296 294 293 293 287 285 285 282 284 283 282 285 281 291 284 267 255 273 273 264 258 262 261 257 253 250 239 232 225 224 214 209 209 208 207 204 209 204 205 210 210 210
306 300 291 283 286 291 286 284 281 280 282 284 285 283 283 289 278 265 266 281 266 262 256 256 256 251 250 248 245 239 240 227 210 211 207 207 206 207 204 205 208 209 207
312 313 310 305 277 278 283 278 283 282 283 285 283 282 271 274 277 273 274 259 266 268 255 261 257 253 247 244 245 238 225 227 216 211 206 209 203 206 206 203 208 208 211
312 311 312 307 303 290 285 289 289 292 292 292 292 290 286 267 267 264 266 270 267 260 264 254 257 255 242 243 241 236 226 221 223 218 211 209 203 205 204 202 202 203 204
318 309 308 308 303 300 301 302 301 298 297 295 294 292 283 281 269 254 260 257 265 257 266 273 266 263 257 245 239 230 225 222 221 218 212 207 204 204 203 205 204 211 215
316 313 315 311 310 307 303 299 298 295 292 291 290 288 281 281 276 274 265 256 255 265 272 273 271 266 254 248 240 230 225 224 223 223 210 206 199 197 204 203 205 201 195
330 318 315 315 316 314 315 315 314 311 305 300 297 287 283 281 280 277 272 264 265 280 280 272 265 256 245 243 239 229 226 216 210 212 208 199 194 192 190 195 192 189 194
331 338 338 330 328 328 326 323 317 316 313 309 303 292 278 276 274 281 279 276 276 277 277 270 259 246 244 242 227 230 215 202 182 172 171 177 184 187 183 178 173 172 179